Volver al catálogo

TSX-5

ActivoMilitarLEO
NORAD 26374·PAYLOAD·🇺🇸 United States

Lanzado Jun 7, 2000 desde Vandenberg Space Force Base

Loading…

Próximos Pases (próximas 24 horas)

TLE

ActualizadoSource: Space-Track

Época: Sep 14, 2026, 08:29 UTC

1 26374U 00030A   26257.35407484  .00006300  00000-0  31599-3 0  9991
2 26374  68.9110 115.4104 0425750 307.1449  49.1493 14.63485457335598

Sigue TSX-5 en tiempo real con AllMySat

Download on the App Store